"Time","Temp","Dewpoint","Humidity","Pressure","Direction","Speed","Gust","Precip","PrecipRate"
"00:04:55","62.7","61.5","96","30.02","179","0","0","0.00","0.00"
"00:09:56","62.5","61.3","96","30.02","179","0","0","0.00","0.00"
"00:14:59","62.2","61","96","30.02","179","0","0","0.00","0.00"
"00:19:58","62","60.8","96","30.02","179","0","0","0.00","0.00"
"00:24:58","61.8","60.6","96","30.02","179","0","0","0.00","0.00"
"00:29:57","61.7","60.5","96","30.02","179","0","0","0.00","0.00"
"00:34:56","61.5","60.3","96","30.02","179","0","0","0.00","0.00"
"00:39:59","61.3","60.2","96","30.02","179","0","0","0.00","0.00"
"00:44:58","61.2","60.2","96.5","30.02","179","0","0","0.00","0.00"
"00:49:56","61.2","60.3","97","30.01","179","0","0","0.00","0.00"
"00:54:59","61.2","60.3","97","30.01","179","0","0","0.00","0.00"
"00:59:58","61.1","60","96","30.01","179","0","0","0.00","0.00"
"01:04:56","61","59.9","96","30.01","179","0","0","0.00","0.00"
"01:09:59","60.8","59.7","96","30.01","179","0","0","0.00","0.00"
"01:14:58","60.7","59.6","96","30.01","179","0","0","0.00","0.00"
"01:19:59","60.6","59.5","96","30.01","179","0","0","0.00","0.00"
"01:24:58","60.4","59.3","96","30.01","179","0","0","0.00","0.00"
"01:29:59","60.2","59.1","96","30.01","179","0","0","0.00","0.00"
"01:34:59","60","58.9","96.2","30.01","179","0","0","0.00","0.00"
"01:39:57","59.9","59","96.8","30.01","179","0","0","0.00","0.00"
"01:44:59","59.8","58.7","96.1","30.01","179","0","0","0.00","0.00"
"01:49:59","59.7","58.6","96","30.01","179","0","0","0.00","0.00"
"01:54:56","59.6","58.6","96.5","30.01","179","0","0","0.00","0.00"
"01:59:58","59.5","58.6","97","30.01","179","0","0","0.00","0.00"
"02:04:56","59.4","58.5","97","30.01","179","0","0","0.00","0.00"
"02:09:59","59.3","58.4","97","30.01","179","0","0","0.00","0.00"
"02:14:55","59.4","58.5","97","30.01","179","0","0","0.00","0.00"
"02:19:56","59.4","58.5","97","30.00","179","0","0","0.00","0.00"
"02:24:57","59.4","58.5","97","30.00","179","0","0","0.00","0.00"
"02:29:58","59.5","58.6","97.2","30.00","179","0","0","0.00","0.00"
"02:34:58","59.5","58.6","97","30.00","179","0","0","0.00","0.00"
"02:39:58","59.5","58.6","97","30.00","179","0","0","0.00","0.00"
"02:44:59","59.4","58.5","97","30.00","179","0","0","0.00","0.00"
"02:49:59","59.3","58.4","97","30.00","179","0","0","0.00","0.00"
"02:54:59","59.1","58.2","97","30.00","179","0","0","0.00","0.00"
"02:59:56","59","58.2","97","30.00","179","0","0","0.00","0.00"
"03:04:59","59","58.2","97","30.00","179","0","0","0.00","0.00"
"03:09:58","59","58.2","97","30.00","179","0","0","0.00","0.00"
"03:14:57","58.9","58.1","97","30.00","179","0","0","0.00","0.00"
"03:19:58","58.8","58","97","29.99","179","0","0","0.00","0.00"
"03:24:57","58.7","57.9","97","29.99","179","0","0","0.00","0.00"
"03:29:59","58.5","57.7","97","29.99","179","0","0","0.00","0.00"
"03:34:57","58.4","57.6","97","29.99","179","0","0","0.00","0.00"
"03:39:59","58.3","57.5","97","29.99","179","0","0","0.00","0.00"
"03:44:56","58.2","57.4","97","29.99","179","0","0","0.00","0.00"
"03:49:57","58.1","57.3","97","29.99","179","0","0","0.00","0.00"
"03:54:57","57.9","57.1","97","29.99","179","0","0","0.00","0.00"
"03:59:59","57.7","56.9","97","29.99","179","0","0","0.00","0.00"
"04:04:56","57.6","56.8","97","29.99","179","0","0","0.00","0.00"
"04:09:56","57.4","56.6","97","29.99","179","0","0","0.00","0.00"
"04:14:58","57.3","56.5","97","29.99","179","0","0","0.00","0.00"
"04:19:56","57.1","56.3","97","29.99","179","0","0","0.00","0.00"
"04:24:56","57","56.2","97","29.99","179","0","0","0.00","0.00"
"04:29:57","57","56.2","97","30.00","179","0","0","0.00","0.00"
"04:34:58","57","56.2","97","30.00","179","0","0","0.00","0.00"
"04:39:58","57","56.4","97.7","30.00","179","0","0","0.00","0.00"
"04:44:57","57.1","56.5","98","30.00","179","0","0","0.00","0.00"
"04:49:58","57.3","56.7","98","30.00","179","0","0","0.00","0.00"
"04:54:56","57.5","56.9","98","30.00","179","0","0","0.00","0.00"
"04:59:59","57.8","57.2","98","30.00","179","0","0","0.00","0.00"
"05:04:58","58","57.4","98","29.99","179","0","0","0.00","0.00"
"05:09:56","58.1","57.5","98","29.99","179","0","0","0.00","0.00"
"05:14:57","58.3","57.7","98","30.00","179","0","0","0.00","0.00"
"05:19:56","58.4","57.8","98","30.00","179","0","0","0.00","0.00"
"05:24:59","58.4","57.8","98","30.00","181","0","0","0.00","0.00"
"05:29:59","58.6","58","98","30.00","181","0","0","0.00","0.00"
"05:34:57","58.8","58.2","98","30.00","182","0","0","0.00","0.00"
"05:39:59","58.9","58.3","98","30.00","182","0","0","0.00","0.00"
"05:44:57","58.9","58.3","98","30.00","182","0","0","0.00","0.00"
"05:49:59","59","58.4","98","30.00","182","0","0","0.00","0.00"
"05:54:58","59","58.4","98","30.00","181","0","0","0.00","0.00"
"05:59:55","59","58.4","98","30.00","181","0","0","0.00","0.00"
"06:04:56","59","58.4","98","30.00","182","0","0","0.00","0.00"
"06:09:56","58.9","58.3","98","30.00","181","0","0","0.00","0.00"
"06:14:58","58.8","58.2","98","30.01","181","0","0","0.00","0.00"
"06:19:59","58.6","58","98","30.01","182","0","0","0.00","0.00"
"06:24:57","58.6","58","98","30.01","182","0","0","0.00","0.00"
"06:29:59","58.5","57.9","98","30.01","181","0","0","0.00","0.00"
"06:34:59","58.2","57.5","97.5","30.01","181","0","0","0.00","0.00"
"06:39:56","58","57.3","97.5","30.01","182","0","0","0.00","0.00"
"06:44:58","57.9","57.3","98","30.02","182","0","0","0.00","0.00"
"06:49:56","57.7","57.1","98","30.02","182","0","0","0.00","0.00"
"06:54:57","57.5","56.7","97","30.02","181","0","0","0.00","0.00"
"06:59:59","57.3","56.5","97","30.02","181","0","0","0.00","0.00"
"07:04:59","57.1","56.5","97.9","30.02","181","0","0","0.00","0.00"
"07:09:58","57","56.4","97.8","30.02","181","0","0","0.00","0.00"
"07:14:59","57","56.4","98","30.02","181","0","0","0.00","0.00"
"07:19:59","57","56.4","98","30.02","181","0","0","0.00","0.00"
"07:24:59","57","56.4","98","30.02","181","0","0","0.00","0.00"
"07:29:57","56.9","56.3","98","30.03","181","0","0","0.00","0.00"
"07:34:56","56.8","56.2","98","30.03","181","0","0","0.00","0.00"
"07:39:57","56.7","56.1","98","30.03","181","0","0","0.00","0.00"
"07:44:57","56.6","56","98","30.03","181","0","0","0.00","0.00"
"07:49:57","56.9","56.3","98","30.03","181","0","0","0.00","0.00"
"07:54:56","57.1","56.5","98","30.03","181","0","0","0.00","0.00"
"07:59:59","57.3","56.7","98","30.03","181","0","0","0.00","0.00"
"08:04:57","57.3","56.7","98","30.03","181","0","0","0.00","0.00"
"08:09:59","57.5","56.9","98","30.03","181","0","0","0.00","0.00"
"08:14:57","57.6","57","98","30.04","181","0","0","0.00","0.00"
"08:19:59","57.9","57.4","98.3","30.04","181","0","0","0.00","0.00"
"08:24:56","58.3","58","99","30.04","181","0","0","0.00","0.00"
"08:29:58","58.9","58.6","99","30.04","181","0","0","0.00","0.00"
"08:34:56","59.5","59.2","99","30.04","181","0","0","0.00","0.00"
"08:39:58","60.3","60","99","30.04","181","0","0","0.00","0.00"
"08:44:57","60.8","60.5","99","30.04","182","0","0","0.00","0.00"
"08:49:56","61.1","60.8","99","30.04","327","0.4","2.3","0.00","0.00"
"08:54:56","61.4","61.1","99","30.04","311","0.9","5","0.00","0.00"
"08:59:57","61.6","61.3","99","30.05","5","0.7","4","0.00","0.00"
"09:04:57","61.7","61.4","99","30.05","340","0.9","3.5","0.00","0.00"
"09:09:56","61.9","61.3","98.1","30.05","321","1.3","3.5","0.00","0.00"
"09:14:59","62.2","61.6","97.8","30.05","289","1.5","6","0.00","0.00"
"09:19:57","62.5","61.5","96.7","30.05","347","1.2","5.8","0.00","0.00"
"09:24:57","62.9","61.7","96.1","30.05","347","0.9","3.5","0.00","0.00"
"09:29:58","63.1","61.6","95.1","30.05","347","0.7","2.3","0.00","0.00"
"09:34:57","63.5","62.1","95.2","30.05","294","0.9","3.5","0.00","0.00"
"09:39:59","63.9","62.1","93.8","30.05","285","0.7","2.3","0.00","0.00"
"09:44:59","64.4","62.4","93.4","30.05","293","0.7","3","0.00","0.00"
"09:49:58","64.9","62.6","92.3","30.05","335","1","4","0.00","0.00"
"09:54:59","65.6","62.9","91","30.05","307","1.6","4","0.00","0.00"
"09:59:56","66.3","63.1","89.5","30.05","315","1.9","9","0.00","0.00"
"10:04:57","66.9","63.4","88.3","30.05","336","1.6","3.5","0.00","0.00"
"10:09:59","67.7","63.8","87.4","30.05","339","2.2","7","0.00","0.00"
"10:14:56","68.1","62.9","83.4","30.05","304","3.5","9.2","0.00","0.00"
"10:19:58","68.4","62.9","82.7","30.04","319","2.6","7","0.00","0.00"
"10:24:57","68.9","63.2","82.2","30.04","305","2.8","6","0.00","0.00"
"10:29:58","69.3","63.5","81.8","30.05","328","1.7","5","0.00","0.00"
"10:34:59","69.9","64","81.5","30.05","315","1.2","4","0.00","0.00"
"10:39:56","70.4","63.8","79.6","30.05","341","2.6","5","0.00","0.00"
"10:44:57","70.8","63.6","78.1","30.05","293","3.3","8","0.00","0.00"
"10:49:58","71.1","63.6","77.4","30.05","325","2.3","6","0.00","0.00"
"10:54:56","71.4","63.8","77.2","30.05","310","2.3","9.2","0.00","0.00"
"10:59:56","71.7","63.6","75.7","30.05","294","3.7","8.1","0.00","0.00"
"11:04:58","71.5","63.3","75.4","30.05","325","2.9","10.4","0.00","0.00"
"11:09:56","71.7","63.9","76.4","30.05","305","2.4","9.2","0.00","0.00"
"11:14:58","72","63.3","74.1","30.05","342","3.5","9.2","0.00","0.00"
"11:19:58","72.2","63.3","73.7","30.05","338","3.2","6","0.00","0.00"
"11:24:59","72.6","63.8","74","30.05","335","2.8","7","0.00","0.00"
"11:29:59","73","63.3","72","30.05","357","4.4","10.4","0.00","0.00"
"11:34:56","73.1","63.2","71.2","30.04","320","3.3","10","0.00","0.00"
"11:39:58","73.1","63","70.6","30.04","337","4.1","10.4","0.00","0.00"
"11:44:59","73.3","63.2","70.7","30.04","320","2.6","6","0.00","0.00"
"11:49:56","73.8","63.9","71.3","30.04","332","2.4","6","0.00","0.00"
"11:54:57","74.4","64","70","30.04","339","2.3","6","0.00","0.00"
"11:59:59","74.8","63.8","68.5","30.04","334","2.6","6","0.00","0.00"
"12:04:56","75.2","63.9","68","30.03","341","1.2","4","0.00","0.00"
"12:09:58","75.5","63.9","67.3","30.03","348","2.3","6","0.00","0.00"
"12:14:59","75.7","63.3","65.6","30.03","335","2.6","7","0.00","0.00"
"12:19:56","75.7","63.1","64.9","30.03","340","3.4","7","0.00","0.00"
"12:24:59","75.7","63","64.6","30.03","321","2.9","7","0.00","0.00"
"12:29:56","76","63.4","64.9","30.03","344","2.6","8","0.00","0.00"
"12:34:58","76.3","63","63.6","30.03","341","2.9","5","0.00","0.00"
"12:39:56","76.3","63.2","64.1","30.03","341","2.9","10.4","0.00","0.00"
"12:44:59","76.5","63.6","64.4","30.03","352","1.1","7","0.00","0.00"
"12:49:57","76.6","63.6","64.1","30.03","342","2.1","6.9","0.00","0.00"
"12:54:57","76.8","63","62.5","30.03","3","2.7","7","0.00","0.00"
"12:59:59","76.9","63.2","62.6","30.03","339","2","6","0.00","0.00"
"13:04:57","77","62.6","61.3","30.02","332","2.6","6","0.00","0.00"
"13:09:59","76.8","62.4","61.2","30.02","336","2.8","6","0.00","0.00"
"13:14:56","77","63.5","63.2","30.02","11","0.5","4.6","0.00","0.00"
"13:19:58","77.4","63.1","61.5","30.02","352","1.7","9.2","0.00","0.00"
"13:24:59","77.6","62.7","60.1","30.02","326","3.3","10.4","0.00","0.00"
"13:29:57","77.6","62.6","60","30.02","326","3.4","6","0.00","0.00"
"13:34:59","77.6","63.1","60.9","30.01","328","2.1","5.8","0.00","0.00"
"13:39:56","77.8","62.8","60","30.01","310","3.1","10.4","0.00","0.00"
"13:44:58","77.8","62","58.2","30.01","329","3","6","0.00","0.00"
"13:49:56","77.6","61.9","58.4","30.01","302","2.4","5","0.00","0.00"
"13:54:58","77.5","61.1","57.1","30.01","312","3.3","7","0.00","0.00"
"13:59:58","77.6","61.6","58","30.01","329","2.1","5.8","0.00","0.00"
"14:04:56","78.2","61.5","56.6","30.00","326","2.1","6","0.00","0.00"
"14:09:59","78.4","60.3","53.8","30.00","341","3.3","6","0.00","0.00"
"14:14:59","78.5","60.2","53.4","30.00","332","2","5.8","0.00","0.00"
"14:19:57","78.8","60.5","53.7","29.99","257","3","7","0.00","0.00"
"14:24:55","78.7","60.5","53.6","29.99","331","2.7","5.8","0.00","0.00"
"14:29:56","78.7","61.2","54.9","29.99","331","2.5","5","0.00","0.00"
"14:34:59","78.7","61.2","55","29.99","268","2.4","7","0.00","0.00"
"14:39:59","78.8","60.5","53.6","29.99","336","2.7","7","0.00","0.00"
"14:44:57","78.7","59.7","52.3","29.99","336","2.9","9","0.00","0.00"
"14:49:59","78.6","59.3","51.7","29.97","340","3.2","9.2","0.00","0.00"
"14:54:57","78.7","59.1","51.2","29.97","335","2.1","5","0.00","0.00"
"14:59:57","78.9","59.9","52.3","29.97","338","1.8","6","0.00","0.00"
"15:04:59","79.2","58.9","49.9","29.97","286","2.5","7","0.00","0.00"
"15:09:57","79.3","58.3","48.8","29.97","338","3.5","6.9","0.00","0.00"
"15:14:58","79.1","57.5","47.6","29.97","326","3.5","7","0.00","0.00"
"15:19:59","79","58.8","50.1","29.97","357","2.4","6","0.00","0.00"
"15:24:58","79.2","59.1","50.2","29.97","306","2.9","6","0.00","0.00"
"15:29:59","79.1","58.2","48.7","29.97","350","2.5","4.6","0.00","0.00"
"15:34:55","78.9","58.6","49.9","29.96","331","1.6","4","0.00","0.00"
"15:39:56","78.9","58.9","50.4","29.96","321","1.9","6","0.00","0.00"
"15:44:56","79.1","59.3","50.7","29.96","319","1.4","5","0.00","0.00"
"15:49:58","79.5","58.6","48.9","29.96","292","1.6","4","0.00","0.00"
"15:54:59","79.7","58.1","47.6","29.96","329","1.7","4","0.00","0.00"
"15:59:59","79.8","58","47.4","29.96","344","2.1","6","0.00","0.00"
"16:04:56","79.7","58.3","48","29.96","339","2.1","7","0.00","0.00"
"16:09:58","79.6","58.7","49","29.96","315","0.4","3.5","0.00","0.00"
"16:14:59","79.4","59.9","51.3","29.96","295","1.7","5","0.00","0.00"
"16:19:59","79.2","59.8","51.6","29.96","317","1.9","4","0.00","0.00"
"16:24:56","79","59.9","52.2","29.96","319","1.4","3.5","0.00","0.00"
"16:29:59","79","60","52.2","29.96","305","1.3","4","0.00","0.00"
"16:34:56","79.1","60.2","52.4","29.96","254","1.4","5","0.00","0.00"
"16:39:56","79.2","59.9","51.7","29.96","262","0.9","3.5","0.00","0.00"
"16:44:56","79.4","60.1","51.9","29.96","268","0.8","3.5","0.00","0.00"
"16:49:58","79.4","60","51.5","29.96","315","1.5","4","0.00","0.00"
"16:54:57","79.3","60.8","53.2","29.96","269","0.8","3.5","0.00","0.00"
"16:59:56","79.2","60.5","52.7","29.96","280","1.1","4","0.00","0.00"
"17:04:57","79.1","60","52.2","29.96","277","1.2","5","0.00","0.00"
"17:09:57","78.8","59.4","51.6","29.96","335","0.9","5","0.00","0.00"
"17:14:59","78.7","59","51","29.96","304","1","3.5","0.00","0.00"
"17:19:59","78.8","59.5","51.8","29.96","317","0.6","3.5","0.00","0.00"
"17:24:56","79.1","60.2","52.3","29.96","269","0.1","3","0.00","0.00"
"17:29:57","79.4","59.9","51.3","29.96","272","0.6","3.5","0.00","0.00"
"17:34:58","79.2","59.8","51.4","29.96","322","1","4","0.00","0.00"
"17:39:57","78.6","60.1","53","29.96","320","1","4","0.00","0.00"
"17:44:56","78.1","59.6","53","29.96","319","0.3","2.3","0.00","0.00"
"17:49:59","77.6","59.9","54.5","29.96","319","0.3","2.3","0.00","0.00"
"17:54:57","77.2","60.1","55.5","29.96","319","0.1","1.2","0.00","0.00"
"17:59:59","76.9","60","56","29.96","319","0","0","0.00","0.00"
"18:04:58","76.5","60.8","58.3","29.96","319","0","0","0.00","0.00"
"18:09:57","75.9","61.6","61.2","29.96","319","0","0","0.00","0.00"
"18:14:56","75","61.6","63","29.96","319","0","0","0.00","0.00"
"18:19:56","73.9","61.1","64.4","29.96","319","0","0","0.00","0.00"
"18:24:59","73","61.2","66.5","29.96","319","0","0","0.00","0.00"
"18:29:58","72.4","61.5","68.7","29.96","319","0","0","0.00","0.00"
"18:34:58","71.6","61.4","70.4","29.96","319","0","0","0.00","0.00"
"18:39:57","70.9","61.3","71.7","29.96","319","0","0","0.00","0.00"
"18:44:57","70.3","61.3","73.3","29.96","319","0","0","0.00","0.00"
"18:49:56","69.7","61.3","74.7","29.96","319","0","0","0.00","0.00"
"18:54:59","69.1","61.2","76.1","29.96","319","0","0","0.00","0.00"
"18:59:56","68.6","61.2","77.3","29.96","319","0","0","0.00","0.00"
"19:04:58","68.3","61.3","78.3","29.96","319","0","0","0.00","0.00"
"19:09:57","68.2","61.5","79.3","29.96","319","0","0","0.00","0.00"
"19:14:58","67.9","61.3","79.5","29.96","319","0","0","0.00","0.00"
"19:19:57","67.4","61","80","29.96","319","0","0","0.00","0.00"
"19:24:56","67","60.9","80.9","29.96","319","0","0","0.00","0.00"
"19:29:56","66.6","60.8","81.5","29.97","319","0","0","0.00","0.00"
"19:34:59","66.3","60.8","82.4","29.97","319","0","0","0.00","0.00"
"19:39:55","66.1","60.9","83.5","29.97","319","0","0","0.00","0.00"
"19:44:59","65.9","60.9","84","29.97","319","0","0","0.00","0.00"
"19:49:59","65.8","60.8","84","29.97","319","0","0","0.00","0.00"
"19:54:56","65.5","60.6","84.2","29.97","319","0","0","0.00","0.00"
"19:59:57","65.1","60.5","85","29.97","319","0","0","0.00","0.00"
"20:04:58","64.9","60.6","85.9","29.97","319","0","0","0.00","0.00"
"20:09:58","64.7","60.7","87","29.97","319","0","0","0.00","0.00"
"20:14:57","64.7","60.7","87","29.97","319","0","0","0.00","0.00"
"20:19:55","64.5","60.5","87","29.96","319","0","0","0.00","0.00"
"20:24:58","64.3","60.6","87.6","29.96","319","0","0","0.00","0.00"
"20:29:58","64.1","60.5","88","29.96","319","0","0","0.00","0.00"
"20:34:57","63.9","60.4","88.4","29.96","319","0","0","0.00","0.00"
"20:39:57","63.8","60.5","89","29.96","319","0","0","0.00","0.00"
"20:44:58","63.8","60.7","89.8","29.96","319","0","0","0.00","0.00"
"20:49:57","63.6","60.3","89","29.96","319","0","0","0.00","0.00"
"20:54:57","63.4","60.1","89","29.96","319","0","0","0.00","0.00"
"20:59:57","63.1","60.1","89.9","29.96","319","0","0","0.00","0.00"
"21:04:59","63","60.1","90.2","29.96","319","0","0","0.00","0.00"
"21:09:58","63","60.3","91","29.96","319","0","0","0.00","0.00"
"21:14:58","63.1","60.4","91","29.96","319","0","0","0.00","0.00"
"21:19:56","63.1","60.4","91","29.96","319","0","0","0.00","0.00"
"21:24:59","62.9","60.2","91","29.96","319","0","0","0.00","0.00"
"21:29:55","62.7","60","91","29.96","319","0","0","0.00","0.00"
"21:34:56","62.5","59.8","91","29.96","319","0","0","0.00","0.00"
"21:39:59","62.3","59.7","91.3","29.96","319","0","0","0.00","0.00"
"21:44:58","62.2","59.8","92","29.96","319","0","0","0.00","0.00"
"21:49:58","62.2","59.8","92","29.96","319","0","0","0.00","0.00"
"21:54:57","62.1","59.7","92","29.96","319","0","0","0.00","0.00"
"21:59:56","61.9","59.5","92","29.97","319","0","0","0.00","0.00"
"22:04:58","61.7","59.4","92.2","29.97","319","0","0","0.00","0.00"
"22:09:58","61.5","59.4","92.6","29.97","319","0","0","0.00","0.00"
"22:14:57","61.5","59.5","93","29.97","319","0","0","0.00","0.00"
"22:19:56","61.5","59.5","93","29.97","319","0","0","0.00","0.00"
"22:24:56","61.4","59.5","93.3","29.97","319","0","0","0.00","0.00"
"22:29:59","61.4","59.7","94","29.97","319","0","0","0.00","0.00"
"22:34:59","61.4","59.7","94","29.97","319","0","0","0.00","0.00"
"22:39:59","61.5","59.8","94","29.97","319","0","0","0.00","0.00"
"22:44:57","61.5","59.8","94","29.97","319","0","0","0.00","0.00"
"22:49:56","61.6","59.9","94","29.97","319","0","0","0.00","0.00"
"22:54:56","61.7","60","94","29.97","319","0","0","0.00","0.00"
"22:59:56","61.8","60.1","94","29.97","319","0","0","0.00","0.00"
"23:04:57","61.7","59.8","93.2","29.97","319","0","0","0.00","0.00"
"23:09:56","61.6","59.6","93","29.97","319","0","0","0.00","0.00"
"23:14:57","61.5","59.5","93.3","29.97","319","0","0","0.00","0.00"
"23:19:59","61.4","59.7","94","29.97","319","0","0","0.00","0.00"
"23:24:59","61.3","59.6","94","29.97","319","0","0","0.00","0.00"
"23:29:58","61.3","59.6","94","29.97","319","0","0","0.00","0.00"
"23:34:57","61.2","59.5","94","29.97","319","0","0","0.00","0.00"
"23:39:58","61.2","59.5","94","29.97","319","0","0","0.00","0.00"
"23:44:57","61.1","59.4","94","29.97","319","0","0","0.00","0.00"
"23:49:56","61","59.3","94","29.97","319","0","0","0.00","0.00"
"23:54:59","61","59.3","94","29.97","319","0","0","0.00","0.00"
"23:59:59","60.9","59.2","94","29.97","319","0","0","0.00","0.00"
